When you browse on this site, cookies collect data to enhance your experience and personalize the content and advertising you see.
Visit our Privacy Policy to learn more. By continuing to use the site, you agree to this use of cookies and data.
  • In Hungary
  • List of Countries
  • For 7 days
  • Water Temperature
  • Satellite Maps
  • Weather Map
  • News
  • Weather Widgets
  • user-avatar
    Login

    Hourly Weather Wiesbaden

    Today, 21 July, Sunday

    Time Temperature Precipitation Wind Pressure Humidity
    00:00 +22°C° 0.1 mm 1 mps 748 mmHg 77%
    01:00 +19°C° 0 mm 0 mps 749 mmHg 81%
    02:00 +21°C° 0.1 mm 1 mps 749 mmHg 82%
    03:00 +20°C° 0.1 mm 1 mps 749 mmHg 84%
    04:00 +20°C° 0.1 mm 1 mps 749 mmHg 85%
    05:00 +20°C° 0 mm 1 mps 749 mmHg 83%
    06:00 +20°C° 0 mm 2 mps 750 mmHg 80%
    07:00 +22°C° 0 mm 1 mps 750 mmHg 75%
    08:00 +23°C° 0 mm 2 mps 751 mmHg 66%
    09:00 +24°C° 0 mm 3 mps 751 mmHg 57%
    10:00 +26°C° 0 mm 4 mps 751 mmHg 49%
    11:00 +27°C° 0 mm 4 mps 751 mmHg 45%
    12:00 +28°C° 0 mm 4 mps 752 mmHg 41%
    13:00 +29°C° 0 mm 4 mps 752 mmHg 37%
    14:00 +29°C° 0 mm 4 mps 752 mmHg 37%
    15:00 +29°C° 0 mm 3 mps 752 mmHg 37%
    16:00 +29°C° 0 mm 3 mps 752 mmHg 38%
    17:00 +28°C° 0 mm 3 mps 752 mmHg 43%
    18:00 +27°C° 0 mm 2 mps 752 mmHg 48%
    19:00 +26°C° 0 mm 2 mps 752 mmHg 53%
    20:00 +25°C° 0 mm 2 mps 753 mmHg 57%
    21:00 +23°C° 0 mm 1 mps 753 mmHg 62%
    22:00 +22°C° 0 mm 1 mps 754 mmHg 67%
    23:00 +21°C° 0 mm 1 mps 754 mmHg 68%

    Tomorrow, 22 July, Monday

    Time Temperature Precipitation Wind Pressure Humidity
    00:00 +20°C° 0 mm 1 mps 754 mmHg 70%
    01:00 +18°C° 0 mm 0 mps 754 mmHg 72%
    02:00 +18°C° 0 mm 0 mps 754 mmHg 72%
    03:00 +17°C° 0 mm 0 mps 754 mmHg 73%
    04:00 +17°C° 0 mm 0 mps 754 mmHg 74%
    05:00 +18°C° 0 mm 0 mps 754 mmHg 70%
    06:00 +19°C° 0 mm 0 mps 754 mmHg 67%
    07:00 +20°C° 0 mm 0 mps 754 mmHg 64%
    08:00 +22°C° 0 mm 0 mps 754 mmHg 58%
    09:00 +23°C° 0 mm 0 mps 754 mmHg 53%
    10:00 +27°C° 0 mm 1 mps 754 mmHg 47%
    11:00 +28°C° 0 mm 1 mps 754 mmHg 43%
    12:00 +29°C° 0 mm 1 mps 754 mmHg 39%
    13:00 +30°C° 0 mm 1 mps 754 mmHg 35%
    14:00 +30°C° 0 mm 1 mps 754 mmHg 34%
    15:00 +30°C° 0 mm 1 mps 754 mmHg 34%
    16:00 +31°C° 0 mm 1 mps 754 mmHg 33%
    17:00 +30°C° 0 mm 1 mps 754 mmHg 37%
    18:00 +29°C° 0 mm 1 mps 753 mmHg 42%
    19:00 +28°C° 0 mm 1 mps 753 mmHg 46%
    20:00 +27°C° 0 mm 1 mps 754 mmHg 50%
    21:00 +25°C° 0 mm 1 mps 754 mmHg 54%
    22:00 +23°C° 0 mm 1 mps 754 mmHg 58%
    23:00 +23°C° 0 mm 1 mps 754 mmHg 59%

    Day after tomorrow, 23 July, Tuesday

    Time Temperature Precipitation Wind Pressure Humidity
    00:00 +22°C° 0 mm 1 mps 754 mmHg 61%
    01:00 +22°C° 0 mm 1 mps 754 mmHg 62%
    02:00 +21°C° 0 mm 1 mps 753 mmHg 63%
    03:00 +21°C° 0 mm 1 mps 753 mmHg 65%
    04:00 +21°C° 0 mm 1 mps 753 mmHg 66%
    05:00 +22°C° 0 mm 1 mps 753 mmHg 64%
    06:00 +22°C° 0 mm 1 mps 753 mmHg 62%
    07:00 +23°C° 0 mm 1 mps 753 mmHg 60%
    08:00 +25°C° 0 mm 1 mps 753 mmHg 54%
    09:00 +27°C° 0 mm 2 mps 753 mmHg 48%
    10:00 +29°C° 0 mm 2 mps 753 mmHg 42%
    11:00 +30°C° 0 mm 2 mps 752 mmHg 38%
    12:00 +31°C° 0 mm 2 mps 752 mmHg 34%
    13:00 +34°C° 0 mm 2 mps 752 mmHg 31%
    14:00 +34°C° 0 mm 3 mps 751 mmHg 31%
    15:00 +34°C° 0 mm 3 mps 751 mmHg 31%
    16:00 +34°C° 0 mm 3 mps 750 mmHg 31%
    17:00 +33°C° 0 mm 3 mps 750 mmHg 36%
    18:00 +31°C° 0 mm 2 mps 750 mmHg 41%
    19:00 +30°C° 0 mm 2 mps 749 mmHg 46%
    20:00 +29°C° 0 mm 2 mps 750 mmHg 50%
    21:00 +27°C° 0 mm 1 mps 750 mmHg 53%
    22:00 +26°C° 0 mm 1 mps 750 mmHg 57%
    23:00 +25°C° 0 mm 1 mps 750 mmHg 59%

    24 July, Wednesday

    Time Temperature Precipitation Wind Pressure Humidity
    00:00 +25°C° 0 mm 1 mps 750 mmHg 62%
    01:00 +24°C° 0 mm 1 mps 749 mmHg 64%
    02:00 +24°C° 0 mm 1 mps 749 mmHg 67%
    03:00 +23°C° 0 mm 1 mps 749 mmHg 70%
    04:00 +23°C° 0 mm 1 mps 749 mmHg 72%
    05:00 +23°C° 0 mm 1 mps 749 mmHg 70%
    06:00 +24°C° 0 mm 1 mps 749 mmHg 67%
    07:00 +25°C° 0 mm 2 mps 749 mmHg 64%
    08:00 +27°C° 0 mm 2 mps 749 mmHg 59%
    09:00 +28°C° 0 mm 2 mps 749 mmHg 53%
    10:00 +30°C° 0 mm 2 mps 749 mmHg 48%
    11:00 +31°C° 0 mm 2 mps 749 mmHg 44%
    12:00 +34°C° 0 mm 3 mps 749 mmHg 39%
    13:00 +35°C° 0 mm 3 mps 748 mmHg 35%
    14:00 +36°C° 0 mm 2 mps 748 mmHg 34%
    15:00 +36°C° 0 mm 2 mps 748 mmHg 33%
    16:00 +36°C° 0 mm 2 mps 748 mmHg 33%
    17:00 +35°C° 0 mm 2 mps 748 mmHg 37%
    18:00 +34°C° 0 mm 2 mps 747 mmHg 41%
    19:00 +34°C° 0 mm 2 mps 747 mmHg 45%
    20:00 +31°C° 0 mm 1 mps 748 mmHg 50%
    21:00 +29°C° 0 mm 1 mps 748 mmHg 54%
    22:00 +28°C° 0 mm 1 mps 748 mmHg 58%
    23:00 +27°C° 0 mm 1 mps 748 mmHg 61%

    25 July, Thursday

    Time Temperature Precipitation Wind Pressure Humidity
    00:00 +26°C° 0 mm 1 mps 748 mmHg 64%
    01:00 +26°C° 0 mm 1 mps 748 mmHg 67%
    02:00 +25°C° 0 mm 1 mps 748 mmHg 69%
    03:00 +25°C° 0 mm 1 mps 748 mmHg 70%
    04:00 +24°C° 0 mm 1 mps 748 mmHg 72%
    05:00 +25°C° 0 mm 2 mps 748 mmHg 69%
    06:00 +26°C° 0 mm 2 mps 748 mmHg 66%
    07:00 +26°C° 0 mm 2 mps 748 mmHg 63%
    08:00 +28°C° 0 mm 3 mps 747 mmHg 56%
    09:00 +30°C° 0 mm 3 mps 747 mmHg 49%
    10:00 +32°C° 0 mm 4 mps 747 mmHg 43%
    11:00 +34°C° 0 mm 4 mps 747 mmHg 39%
    12:00 +35°C° 0 mm 4 mps 747 mmHg 36%
    13:00 +36°C° 0 mm 4 mps 746 mmHg 33%
    14:00 +37°C° 0 mm 4 mps 746 mmHg 32%
    15:00 +37°C° 0 mm 4 mps 746 mmHg 32%
    16:00 +37°C° 0 mm 4 mps 745 mmHg 31%
    17:00 +36°C° 0 mm 3 mps 745 mmHg 35%
    18:00 +35°C° 0 mm 3 mps 745 mmHg 39%
    19:00 +34°C° 0 mm 2 mps 745 mmHg 43%
    20:00 +32°C° 0 mm 2 mps 745 mmHg 48%
    21:00 +30°C° 0 mm 2 mps 745 mmHg 53%
    22:00 +29°C° 0 mm 2 mps 745 mmHg 57%
    23:00 +28°C° 0 mm 2 mps 745 mmHg 61%

    26 July, Friday

    Time Temperature Precipitation Wind Pressure Humidity
    00:00 +28°C° 0 mm 1 mps 745 mmHg 64%
    01:00 +27°C° 0 mm 1 mps 745 mmHg 68%
    02:00 +27°C° 0 mm 1 mps 744 mmHg 70%
    03:00 +26°C° 0 mm 1 mps 744 mmHg 72%
    04:00 +26°C° 0 mm 1 mps 744 mmHg 74%
    05:00 +26°C° 0 mm 1 mps 744 mmHg 72%
    06:00 +27°C° 0 mm 1 mps 744 mmHg 70%
    07:00 +28°C° 0 mm 1 mps 745 mmHg 68%
    08:00 +29°C° 0 mm 1 mps 745 mmHg 63%
    09:00 +30°C° 0 mm 1 mps 745 mmHg 58%
    10:00 +32°C° 0 mm 2 mps 745 mmHg 52%
    11:00 +32°C° 0 mm 2 mps 745 mmHg 50%
    12:00 +34°C° 0 mm 3 mps 746 mmHg 47%
    13:00 +34°C° 0 mm 3 mps 746 mmHg 44%
    14:00 +33°C° 0.3 mm 4 mps 746 mmHg 50%
    15:00 +30°C° 0.3 mm 4 mps 746 mmHg 56%
    16:00 +28°C° 0.3 mm 5 mps 746 mmHg 62%
    17:00 +27°C° 0.2 mm 5 mps 746 mmHg 63%
    18:00 +26°C° 0.2 mm 5 mps 747 mmHg 65%
    19:00 +25°C° 0.2 mm 5 mps 747 mmHg 66%
    20:00 +25°C° 0 mm 5 mps 748 mmHg 67%
    21:00 +23°C° 0 mm 4 mps 749 mmHg 68%
    22:00 +22°C° 0 mm 4 mps 749 mmHg 70%
    23:00 +21°C° 0.5 mm 3 mps 749 mmHg 75%
    Show more